991206 726  0.5+  0.1-    991207 610  0.2+  0.6-    991220 704  0.3+  0.1+  

991206 726  0.6+  0.8-    991207 595  0.3+  0.6+    991220 704  0.7+  0.1+  

991206 726  0.9+  0.4-    991207 610  0.3+  0.6-    991220 704  0.0   0.2+  

991206 726  0.2+  0.4+    991207 595  0.4+  0.0     991220 704  0.7+  0.1+  

991206 726  0.0   0.6+    991207 610  0.4+  0.5-    991222 118  0.0   0.2-  

991206 713  0.1+  0.2+    991207 610  0.5+  0.4-    991222 118  0.2-  0.1-  

991206 713  1.3+  0.3-    991207 595  0.6+  0.7+    991222 118  0.0   0.4-  

991206 557  0.1+  0.1+    991207 610  0.6+  0.3-    991227 402  0.1-  0.0   

991206 557  0.0   0.1+    991208 468  0.6+  0.6-    991227 402  0.6-  0.0   

991206 557  0.1+  0.1+    991208 468  0.6+  0.3-    991227 402  0.1+  0.1+  

991206 652  0.7-  1.2+    991208 468  0.1+  0.2+                            

 

NAKANO

         **** Don't distribute anyone except personal use only ****

                (C) Copyright 1999 OAA/ComputingSection

write mail from CFAD0::NAKANO on 1999-12-28 20:49:27(JST).

 



 1999 XS35 

Epoch 1999 Dec. 8.0 TT = JDT 2451520.5                  Nakano

M   0.58314              (2000.0)            P               Q

n   0.01218473     Peri.  333.16470     +0.90649614     -0.33883688

a  18.7036137      Node    49.01106     +0.42180090     +0.70038371

e   0.9493296      Incl.   19.49452     +0.01867494     +0.62821352

P  80.89           H   17.3           G   0.15           U   *

Residuals in seconds of arc 

991202 699  0.6+  0.4-    991206 046  0.1+  0.2+    991207 713  0.2+  0.1+  

991202 699  0.1+  0.4+    991206 726  0.1+  0.7+    991207 713  0.4+  1.1+  

991202 699  0.7+  0.4-    991206 726  0.4+  0.3-    991207 713  0.3-  0.2+  

991202 557  0.0   0.2-    991206 726  0.5+  0.0     991207 713  0.0   0.0   

991202 557  0.1+  0.0     991206 726  0.6+  0.7-    991207 658  0.3+  0.3+  

991202 557  0.1-  0.1-    991206 726  0.9+  0.3-    991207 658  0.1-  0.8+  

991202 557  0.0   0.1-    991206 726  0.2+  0.5+    991207 658  0.2+  0.5+  

991202 587  0.1-  0.2-    991206 726  0.0   0.7+    991207 402  0.0   0.1+  

991202 587  0.1-  0.2-    991206 713  0.0   0.3+    991207 402  0.1+  0.0   

991202 587  0.3-  0.0     991206 713  1.3+  0.2-    991207 402  0.2-  0.0   

991203 046  0.0   0.2-    991206 557  0.0   0.2+    991207 402  0.1-  0.1+  

991203 046  0.0   0.1-    991206 557  0.1-  0.2+    991207 108  0.6+  0.4-  

991203 046  0.0   0.0     991206 557  0.0   0.2+    991207 108  0.6-  1.0-  

991203 046  0.1+  0.0     991206 652  0.8-  1.3+    991207 108  1.6-  0.8-  

991203 678  0.3-  0.3+    991206 652  1.0-  0.3+    991207 610  0.3+  0.6-  

991203 719  0.4-  0.5+    991206 652  0.1-  1.2+    991207 595  0.4+  0.6+  

991203 678  0.4-  0.0     991206 652  1.0+  0.2+    991207 610  0.4+  0.6-  

991203 678  0.6+  0.4+    991206 652  0.8-  0.1-    991207 595  0.5+  0.1-  

991203 719  0.7-  0.6+    991206 652  0.6+  0.9-    991207 610  0.4+  0.5-  

991203 711  0.2-  0.1-    991206 652  0.2+  1.5-    991207 610  0.6+  0.4-  

991203 711  0.2-  0.1+    991206 652  0.9+  1.2-    991207 595  0.7+  0.7+  

991203 711  0.3+  0.2-    991206 652  0.1-  1.2-    991207 610  0.7+  0.3-  

991203 658  0.4+  0.9+    991206 652  0.4+  1.0-    991208 468  0.7+  0.6-  

991203 658  0.2+  0.5+    991206 652  0.1-  0.8-    991208 468  0.6+  0.4-  

991203 658  0.1+  0.0     991206 652  1.8-  0.7-    991208 468  0.2+  0.1+  

991203 151  0.6-  0.5+    991206 652  0.4-  0.1-    991208 294  0.8+  1.2-  

991203 151  0.4-  0.3-    991206 652  0.8-  0.1+    991208 294  0.4-  0.0   

991203 151  0.7-  0.1-    991206 151  0.1-  0.9-    991208 294  0.4-  0.9+  

991203 151  0.3-  0.0     991206 151  0.3+  0.3-    991208 557  0.2+  0.3-  

991203 151  0.7+  0.3-    991206 151  0.1-  0.1-    991208 557  0.3+  0.2-  

991203 151  1.1+  0.3-    991206 151  0.9-  0.4+    991209 118  0.2-  0.2-  

991204 946  1.1-  0.6-    991206 610  0.3+  0.7-    991209 118  0.3+  0.1-  

991204 946  1.0-  0.1+    991206 610  0.3+  0.6-    991209 118  0.5+  0.1+  

991204 946  0.4+  0.6-    991206 610  0.3+  0.5-    991209 713  0.9-  0.0   

991204 652  0.2+  0.6+    991206 610  0.4+  0.4-    991209 713  0.9-  0.7+  

991204 652  1.0+  0.8-    991206 610  0.4+  0.4-    991209 713  1.7-  0.5+  

991204 652 (3.7-  2.7-)   991206 620  0.1+  0.3+    991209 713  1.4-  0.6+  

991204 678  0.1-  0.1-    991206 620  0.1-  0.4+    991209 713  1.0-  0.7+  

991204 652  0.6-  0.1+    991206 108  1.2-  1.2+    991209 713  0.7-  0.7+  

991204 678  0.6-  0.0     991206 620  0.5-  0.5+    991209 713  1.4-  0.4+  

991205 719 (2.7+  1.1+)   991206 108  0.6-  0.3+    991209 713  1.1-  0.2+  

991205 658  0.2-  0.0     991206 108  0.3-  0.0     991209 557  0.6+  0.4-  

991205 658  0.5+  0.1-    991207 620  0.6-  0.6+    991209 557  0.4+  0.6-  

991205 658  0.0   0.6+    991207 595  0.2+  0.0     991209 557  0.6+  0.6-  

991205 046  0.2+  0.3+    991207 595  0.3+  0.3+    991210 355  1.0+  0.6+  

991206 046  0.0   0.3+    991207 595  0.4+  0.4+    991210 355  0.7+  0.2-  

991206 046  0.0   0.3+    991207 713  1.7+  0.7+    991210 355  0.3+  0.1-  

 NAKANO

         **** Don't distribute anyone except personal use only ****

                (C) Copyright 1999 OAA/ComputingSection

write mail from CFAD0::NAKANO on 1999-12-11 05:33:50(JST).







–ß‚è‚Ü‚·B